Location: Most
(50.5133°N, 13.6207°E)
Time: 09:34:46
(UTC+01:00)

Oscar 11 - Pass Details

Date: 29 November 2022
Orbit: 611 x 621 km, 97.6° (Epoch: 28 January)

Event Time Altitude Azimuth Distance (km) Brightness Sun altitude
Rises 04:35:09 0° 16° (NNE) 2,893 10.7 -28.8°
Reaches altitude 10° 04:37:23 10° 21° (NNE) 1,982 9.9 -28.4°
Enters shadow 04:41:04 51° 69° (ENE) 777 7.8 -27.8°
